Regional Weather Roundup
Issued by NWS Jackson, KY

Home | Current Version | Previous Version | Text Only | Print | Product List | Glossary On
Versions: 1 2 3 4 5 6 7 8 9 10 11 12 13 14 15 16 17 18 19 20 21 22 23 24 25 26 27 28 29 30 31 32 33 34 35 36 37 38 39 40 41 42 43 44 45 46 47 48 49 50
000
ASUS43 KJKL 020510
RWRJKL

EAST KENTUCKY HOURLY WEATHER ROUNDUP
NATIONAL WEATHER SERVICE JACKSON KY
100 AM EDT THU APR 02 2015

NOTE: "FAIR" INDICATES FEW OR NO CLOUDS BELOW 12,000 FEET WITH
NO SIGNIFICANT WEATHER AND/OR OBSTRUCTIONS TO VISIBILITY.

* THESE REPORTS ARE NOT UNDER NWS QUALITY CONTROL AND MAY NOT
  REPORT WEATHER SUCH AS PRECIPITATION AND FOG.

KYZ079-080-083-085-087-088-110-112-115-119-120-020600
...EASTERN KENTUCKY...

CITY           SKY/WX    TMP DP  RH WIND       PRES   REMARKS
JACKSON        PTCLDY    57  15  19 SE5       30.10S
LONDON         MOCLDY    49  30  48 S3        30.09F
SOMERSET*      MOCLDY    46  28  49 CALM      30.09F
MONTICELLO*    MOCLDY    47  33  58 CALM      30.09F
MIDDLESBORO*   MOCLDY    43  35  74 CALM      30.14R
HAZARD APT*    CLEAR     50  23  34 CALM      30.10S
BLACK MTN*       N/A     50  18  27 CALM        N/A
PIKEVILLE APT* CLEAR     55  19  24 SE6       30.11F
BIG SANDY*     PTCLDY    53  21  28 CALM      30.10F
MOREHEAD APT*  MOCLDY    55  18  22 VRB5      30.11S
$$

KYZ035-036-041-042-044-050-067-078-099-020600
...CENTRAL KENTUCKY...

CITY           SKY/WX    TMP DP  RH WIND       PRES   REMARKS
MT STERLING*   MOCLDY    54  23  30 SE8       30.09F
FLEMING/MASON* CLEAR     48  25  40 SE8       30.08F
DANVILLE*      PTCLDY    45  34  65 CALM      30.07F
RICHMOND*      PTCLDY    48  25  40 SE6       30.07F
LEXINGTON      MOCLDY    53  24  32 SE7       30.06F
FRANKFORT      MOCLDY    49  29  46 SE5       30.04F
$$

KYZ091>093-OHZ055-061-077-WVZ005-015-034-035-042-020600
...SOUTHERN OHIO/WEST VIRGINIA...

CITY           SKY/WX    TMP DP  RH WIND       PRES   REMARKS
COVINGTON      MOCLDY    50  29  44 S10       30.04F
COLUMBUS       PTCLDY    50  29  44 SE6       30.07F
DAYTON         PTCLDY    53  29  39 S10       30.03F
WILMINGTON     PTCLDY    47  29  49 SE8       30.06F
HUNTINGTON     PTCLDY    50  23  34 E5        30.10F
CHARLESTON     PTCLDY    44  27  51 CALM      30.11F
PINEVILLE*     PTCLDY    40  31  72 MISG      30.20S
BECKLEY        PTCLDY    50  14  23 SE9       30.16F
BLUEFIELD      PTCLDY    54  14  20 S5        30.18F
$$

VAZ002-007-008-TNZ017-027-036-066-071-020600
...SOUTHWEST VIRGINIA/EAST TENNESSEE...

CITY           SKY/WX    TMP DP  RH WIND       PRES   REMARKS
WISE*          CLEAR     54   9  16 S5        30.15S
JONESVILLE*    CLEAR     43  36  75 CALM      30.15S
ABINGDON*      CLEAR     51  24  35 CALM      30.16S
BRISTOL        PTCLDY    43  30  60 CALM      30.15S
KNOXVILLE      MOCLDY    52  34  50 CALM      30.11S
OAK RIDGE      MOCLDY    50  37  61 CALM      30.12F
CROSSVILLE     MOCLDY    58  26  29 S5        30.11F
NASHVILLE      PTCLDY    60  38  43 S5        30.01F
$$

...KEY TO REMARKS...
VSB - VISIBILITY IN MILES
WCI - WIND CHILL INDEX
HX  - HEAT INDEX

$$


USA.gov is the U.S. government's official web portal to all federal, state and local government web resources and services.